Time,TemperatureF,DewpointF,PressureIn,WindDirection,WindDirectionDegrees,WindSpeedMPH,WindSpeedGustMPH,Humidity,HourlyPrecipIn,Conditions,Clouds,dailyrainin,SoftwareType,DateUTC
2013-01-22 18:31:00,18.3,18.1,30.04,SW,225,9.8,-999.0,99,-99.99,,,0.00,Acu-Link.com,2013-01-22 23:31:00,
2013-01-22 18:46:00,18.1,17.9,30.05,NNE,22,3.1,-999.0,99,-99.99,,,0.00,Acu-Link.com,2013-01-22 23:46:00,
2013-01-22 19:02:00,18.0,17.7,30.06,WNW,292,3.8,-999.0,99,-99.99,,,0.00,Acu-Link.com,2013-01-23 00:02:00,
2013-01-22 19:17:00,17.8,17.5,30.06,West,270,6.7,-999.0,99,-99.99,,,0.00,Acu-Link.com,2013-01-23 00:17:00,
2013-01-22 19:32:00,17.2,17.0,30.06,NW,315,6.7,-999.0,99,-99.99,,,0.00,Acu-Link.com,2013-01-23 00:32:00,
2013-01-22 19:47:00,16.7,16.5,30.06,West,270,7.8,-999.0,99,-99.99,,,0.00,Acu-Link.com,2013-01-23 00:47:00,
2013-01-22 20:02:00,16.5,16.3,30.07,WSW,247,3.1,-999.0,99,-99.99,,,0.00,Acu-Link.com,2013-01-23 01:02:00,
2013-01-22 20:18:00,16.3,16.1,30.08,West,270,4.3,-999.0,99,-99.99,,,0.00,Acu-Link.com,2013-01-23 01:18:00,
2013-01-22 20:33:00,16.2,15.9,30.08,SW,225,6.3,-999.0,99,-99.99,,,0.00,Acu-Link.com,2013-01-23 01:33:00,
2013-01-22 20:48:00,16.0,15.7,30.08,WSW,247,6.3,-999.0,99,-99.99,,,0.00,Acu-Link.com,2013-01-23 01:48:00,
2013-01-22 21:03:00,15.6,15.4,30.09,WNW,292,4.3,-999.0,99,-99.99,,,0.00,Acu-Link.com,2013-01-23 02:03:00,
2013-01-22 21:18:00,15.4,15.2,30.09,West,270,5.1,-999.0,99,-99.99,,,0.00,Acu-Link.com,2013-01-23 02:18:00,
2013-01-22 21:34:00,15.8,15.6,30.10,WNW,292,4.7,-999.0,99,-99.99,,,0.00,Acu-Link.com,2013-01-23 02:34:00,
2013-01-22 21:49:00,15.1,14.9,30.11,WSW,247,8.9,-999.0,99,-99.99,,,0.00,Acu-Link.com,2013-01-23 02:49:00,
2013-01-22 22:04:00,14.9,14.7,30.11,SW,225,7.4,-999.0,99,-99.99,,,0.00,Acu-Link.com,2013-01-23 03:04:00,
2013-01-22 22:20:00,14.7,14.5,30.11,SW,225,4.3,-999.0,99,-99.99,,,0.00,Acu-Link.com,2013-01-23 03:20:00,
2013-01-22 22:35:00,14.4,14.1,30.11,West,270,3.1,-999.0,99,-99.99,,,0.00,Acu-Link.com,2013-01-23 03:35:00,
2013-01-22 22:50:00,14.2,14.0,30.12,West,270,6.3,-999.0,99,-99.99,,,0.00,Acu-Link.com,2013-01-23 03:50:00,
2013-01-22 23:06:00,13.8,13.6,30.12,SW,225,5.8,-999.0,99,-99.99,,,0.00,Acu-Link.com,2013-01-23 04:06:00,
2013-01-22 23:21:00,13.8,13.6,30.12,NE,45,2.7,-999.0,99,-99.99,,,0.00,Acu-Link.com,2013-01-23 04:21:00,
2013-01-22 23:51:00,13.1,12.9,30.12,West,270,5.8,-999.0,99,-99.99,,,0.00,Acu-Link.com,2013-01-23 04:51:00,